Tracking 33190 objects as of 9-Feb-2026
HD Live streaming from Space Station
objects crossing your sky now

STARLINK-36578

Track STARLINK-36578 now!
10-day predictions
STARLINK-36578 is classified as:


NORAD ID: 67571
Int'l Code: 2026-016L
Perigee: 343.6 km
Apogee: 345.8 km
Inclination: 97.3 °
Period: 91.3 minutes
Semi major axis: 6715 km
RCS: Unknown
Launch date: January 25, 2026
Source: United States (US)
Launch site: AIR FORCE WESTERN TEST RANGE (AFWTR)
Your satellite tracking list
Your tracking list is empty




NASA's NSSDC Master Catalog

Two Line Element Set (TLE):
1 67571U 26016L   26040.50002314 -.01767944  00000-0 -12165-1 0  9994
2 67571  97.2845  99.5336 0001673  94.6702 195.4435 15.77479132  3496
Source of the keplerian elements: AFSPC